Weather History for KWVL - February, 2013

Change the Weather History Date:

Monday, February 18, 2013

  Actual Average Record
Temperature  
Mean Temperature 19 °F -  
Max Temperature 26 °F 33 °F 61 °F (1981)
Min Temperature 12 °F 8 °F -15 °F (1979)
Degree Days  
Heating Degree Days 46    
Moisture  
Dew Point -1 °F    
Average Humidity 43    
Maximum Humidity 53    
Minimum Humidity 33    
Precipitation  
Precipitation 0.00 in - - ()
Sea Level Pressure  
Sea Level Pressure 29.67 in    
Wind  
Wind Speed 17 mph (WNW)    
Max Wind Speed 28 mph    
Max Gust Speed 39 mph    
Visibility 10 miles    
Events      
Averages and records for this station are not official NWS values.
T = Trace of Precipitation, MM = Missing Value Source: NWS Daily Summary

Daily Weather History Graph

Daily Weather History Graph

Search for Another Location

Airport or City:

Trip Planner

Search our weather history database for the weather conditions in past years. The results will help you decide how hot, cold, wet, or windy it might be!

Date:

Astronomy

Feb. 18, 2013 Rise Set
Actual Time 6:33 AM EST 5:11 PM EST
Civil Twilight 6:04 AM EST 5:41 PM EST
Nautical Twilight 5:30 AM EST 6:15 PM EST
Astronomical Twilight 4:56 AM EST 6:49 PM EST
Moon 10:48 AM EST (2/18) 1:17 AM EST (2/18)
Length of Visible Light 11h 37m
Length of Day
10h 38m
First Quarter, 58% of the Moon is Illuminated
Feb 18
First Quarter
Feb 25
Full
Mar 4
Last Quarter
Mar 11
New
Mar 19
First Quarter

Hourly Weather History & Observations

Time (EST) Temp. Windchill Dew Point Humidity Pressure Visibility Wind Dir Wind Speed Gust Speed Precip Events Conditions
12:15 AM 15.8 °F -1.1 °F 1.4 °F 53% 29.37 in 10.0 mi WNW 19.6 mph 28.8 mph N/A   Mostly Cloudy
12:35 AM 15.8 °F -1.1 °F 1.4 °F 53% 29.38 in 10.0 mi West 19.6 mph 26.5 mph N/A   Scattered Clouds
12:55 AM 15.8 °F 1.4 °F 1.4 °F 53% 29.39 in 10.0 mi West 13.8 mph 27.6 mph N/A   Scattered Clouds
1:15 AM 15.8 °F 1.4 °F -0.4 °F 49% 29.40 in 10.0 mi West 13.8 mph 24.2 mph N/A   Mostly Cloudy
1:35 AM 15.8 °F 0.9 °F -2.2 °F 45% 29.41 in 10.0 mi West 15.0 mph 26.5 mph N/A   Overcast
1:55 AM 15.8 °F -0.2 °F -2.2 °F 45% 29.41 in 10.0 mi WNW 17.3 mph 29.9 mph N/A   Overcast
2:15 AM 15.8 °F 1.4 °F -0.4 °F 49% 29.41 in 10.0 mi WNW 13.8 mph 28.8 mph N/A   Partly Cloudy
2:35 AM 15.8 °F 0.9 °F -0.4 °F 49% 29.42 in 10.0 mi WNW 15.0 mph 25.3 mph N/A   Clear
2:55 AM 15.8 °F 0.3 °F -0.4 °F 49% 29.42 in 10.0 mi West 16.1 mph 35.7 mph N/A   Clear
3:15 AM 15.8 °F -0.2 °F -2.2 °F 45% 29.43 in 10.0 mi WNW 17.3 mph 28.8 mph N/A   Clear
3:35 AM 14.0 °F -3.4 °F -2.2 °F 49% 29.44 in 10.0 mi WNW 19.6 mph 31.1 mph N/A   Clear
3:55 AM 14.0 °F -2.5 °F -2.2 °F 49% 29.46 in 10.0 mi WNW 17.3 mph 32.2 mph N/A   Clear
4:15 AM 12.2 °F -4.8 °F -2.2 °F 53% 29.46 in 10.0 mi West 17.3 mph 36.8 mph N/A   Clear
4:35 AM 14.0 °F -5.5 °F -2.2 °F 49% 29.48 in 10.0 mi WNW 25.3 mph 38.0 mph N/A   Clear
4:55 AM 12.2 °F -4.8 °F -2.2 °F 53% 29.48 in 10.0 mi WNW 17.3 mph 38.0 mph N/A   Clear
5:15 AM 12.2 °F -6.3 °F -2.2 °F 53% 29.50 in 10.0 mi WNW 20.7 mph 32.2 mph N/A   Clear
5:35 AM 12.2 °F -5.3 °F -2.2 °F 53% 29.51 in 10.0 mi WNW 18.4 mph 39.1 mph N/A   Clear
5:55 AM 12.2 °F -5.3 °F -2.2 °F 53% 29.52 in 10.0 mi WNW 18.4 mph 34.5 mph N/A   Clear
6:15 AM 12.2 °F -6.3 °F -2.2 °F 53% 29.52 in 10.0 mi WNW 20.7 mph 31.1 mph N/A   Clear
6:35 AM 12.2 °F -8.6 °F -2.2 °F 53% 29.54 in 10.0 mi WNW 27.6 mph 38.0 mph N/A   Clear
6:55 AM 12.2 °F -5.3 °F -2.2 °F 53% 29.55 in 10.0 mi West 18.4 mph 29.9 mph N/A   Clear
7:15 AM 12.2 °F -5.8 °F -2.2 °F 53% 29.56 in 10.0 mi West 19.6 mph 28.8 mph N/A   Clear
7:35 AM 12.2 °F -7.5 °F -2.2 °F 53% 29.57 in 10.0 mi WNW 24.2 mph 39.1 mph N/A   Clear
7:55 AM 12.2 °F -8.2 °F -2.2 °F 53% 29.58 in 10.0 mi WNW 26.5 mph 39.1 mph N/A   Clear
8:15 AM 12.2 °F -6.7 °F -2.2 °F 53% 29.60 in 10.0 mi WNW 21.9 mph 29.9 mph N/A   Clear
8:35 AM 12.2 °F -4.3 °F -2.2 °F 53% 29.60 in 10.0 mi WNW 16.1 mph 38.0 mph N/A   Clear
8:55 AM 14.0 °F -3.4 °F -0.4 °F 53% 29.62 in 10.0 mi WNW 19.6 mph 31.1 mph N/A   Clear
9:15 AM 15.8 °F -2.7 °F -2.2 °F 45% 29.63 in 10.0 mi WNW 24.2 mph 36.8 mph N/A   Clear
9:35 AM 15.8 °F -2.3 °F -0.4 °F 49% 29.64 in 10.0 mi WNW 23.0 mph 36.8 mph N/A   Clear
9:55 AM 15.8 °F -3.1 °F -0.4 °F 49% 29.65 in 10.0 mi WNW 25.3 mph 35.7 mph N/A   Clear
10:15 AM 17.6 °F 3.7 °F -0.4 °F 45% 29.66 in 10.0 mi WNW 13.8 mph 32.2 mph N/A   Clear
10:35 AM 17.6 °F 2.2 °F -0.4 °F 45% 29.67 in 10.0 mi WNW 17.3 mph 26.5 mph N/A   Clear
10:55 AM 19.4 °F 4.1 °F -0.4 °F 42% 29.68 in 10.0 mi WNW 18.4 mph 29.9 mph N/A   Clear
11:15 AM 19.4 °F 4.1 °F -0.4 °F 42% 29.67 in 10.0 mi WNW 18.4 mph 31.1 mph N/A   Clear
11:35 AM 21.2 °F 4.9 °F -0.4 °F 39% 29.67 in 10.0 mi West 23.0 mph 35.7 mph N/A   Clear
11:55 AM 21.2 °F 3.9 °F -0.4 °F 39% 29.68 in 10.0 mi West 26.5 mph 35.7 mph N/A   Clear
12:15 PM 21.2 °F 5.6 °F -0.4 °F 39% 29.68 in 10.0 mi West 20.7 mph 38.0 mph N/A   Clear
12:35 PM 23.0 °F 8.7 °F 1.4 °F 39% 29.68 in 10.0 mi West 18.4 mph 31.1 mph N/A   Clear
12:55 PM 24.8 °F 9.6 °F 1.4 °F 36% 29.69 in 10.0 mi WNW 23.0 mph 34.5 mph N/A   Clear
1:15 PM 24.8 °F 11.5 °F 1.4 °F 36% 29.69 in 10.0 mi NW 17.3 mph 26.5 mph N/A   Clear
1:35 PM 24.8 °F 11.5 °F 1.4 °F 36% 29.70 in 10.0 mi WNW 17.3 mph 25.3 mph N/A   Clear
1:55 PM 26.6 °F 13.4 °F 1.4 °F 34% 29.71 in 10.0 mi West 18.4 mph 27.6 mph N/A   Clear
2:15 PM 26.6 °F 12.4 °F 1.4 °F 34% 29.71 in 10.0 mi WNW 21.9 mph 33.4 mph N/A   Clear
2:35 PM 26.6 °F 12.0 °F 1.4 °F 34% 29.71 in 10.0 mi WNW 23.0 mph 32.2 mph N/A   Clear
2:55 PM 26.6 °F 12.0 °F 1.4 °F 34% 29.71 in 10.0 mi WNW 23.0 mph 35.7 mph N/A   Clear
3:15 PM 26.6 °F 13.8 °F 1.4 °F 34% 29.72 in 10.0 mi WNW 17.3 mph 35.7 mph N/A   Clear
3:35 PM 26.6 °F 12.0 °F 1.4 °F 34% 29.73 in 10.0 mi NW 23.0 mph 34.5 mph N/A   Clear
3:55 PM 26.6 °F 13.8 °F 1.4 °F 34% 29.75 in 10.0 mi WNW 17.3 mph 31.1 mph N/A   Clear
4:15 PM 26.6 °F 12.0 °F 1.4 °F 34% 29.76 in 10.0 mi WNW 23.0 mph 32.2 mph N/A   Clear
4:35 PM 26.6 °F 11.1 °F 1.4 °F 34% 29.78 in 10.0 mi WNW 26.5 mph 36.8 mph N/A   Clear
4:55 PM 24.8 °F 10.3 °F -0.4 °F 34% 29.79 in 10.0 mi West 20.7 mph 29.9 mph N/A   Clear
5:15 PM 24.8 °F 11.1 °F -0.4 °F 34% 29.80 in 10.0 mi WNW 18.4 mph 29.9 mph N/A   Clear
5:35 PM 23.0 °F 8.0 °F -0.4 °F 36% 29.81 in 10.0 mi WNW 20.7 mph 28.8 mph N/A   Clear
5:55 PM 23.0 °F 6.9 °F -0.4 °F 36% 29.82 in 10.0 mi West 24.2 mph 36.8 mph N/A   Clear
6:15 PM 21.2 °F 6.4 °F -0.4 °F 39% 29.83 in 10.0 mi West 18.4 mph 29.9 mph N/A   Clear
6:35 PM 21.2 °F 8.9 °F -0.4 °F 39% 29.84 in 10.0 mi West 12.7 mph 20.7 mph N/A   Clear
6:55 PM 21.2 °F 12.6 °F -0.4 °F 39% 29.86 in 10.0 mi WNW 6.9 mph - N/A   Clear
7:15 PM 19.4 °F - -0.4 °F 42% 29.87 in 10.0 mi Calm Calm - N/A   Clear
7:35 PM 19.4 °F - -0.4 °F 42% 29.87 in 10.0 mi Calm Calm - N/A   Clear
7:55 PM 19.4 °F 11.5 °F -0.4 °F 42% 29.88 in 10.0 mi West 5.8 mph - N/A   Clear
8:15 PM 19.4 °F 14.3 °F -2.2 °F 39% 29.89 in 10.0 mi WNW 3.5 mph - N/A   Clear
8:35 PM 19.4 °F 11.5 °F -2.2 °F 39% 29.89 in 10.0 mi WNW 5.8 mph - N/A   Clear
8:55 PM 19.4 °F 7.2 °F -4.0 °F 36% 29.90 in 10.0 mi WNW 11.5 mph 18.4 mph N/A   Clear
9:15 PM 19.4 °F 6.0 °F -4.0 °F 36% 29.89 in 10.0 mi WNW 13.8 mph 19.6 mph N/A   Clear
9:35 PM 19.4 °F 8.6 °F -4.0 °F 36% 29.90 in 10.0 mi WNW 9.2 mph 20.7 mph N/A   Clear
9:55 PM 19.4 °F 10.4 °F -5.8 °F 33% 29.91 in 10.0 mi West 6.9 mph - N/A   Clear
10:15 PM 19.4 °F 7.9 °F -5.8 °F 33% 29.91 in 10.0 mi West 10.4 mph - N/A   Clear
10:35 PM 19.4 °F 10.4 °F -5.8 °F 33% 29.92 in 10.0 mi WNW 6.9 mph - N/A   Clear
10:55 PM 19.4 °F 12.8 °F -5.8 °F 33% 29.92 in 10.0 mi West 4.6 mph - N/A   Clear
11:15 PM 19.4 °F 12.8 °F -5.8 °F 33% 29.94 in 10.0 mi WSW 4.6 mph - N/A   Clear
11:35 PM 19.4 °F 11.5 °F -5.8 °F 33% 29.94 in 10.0 mi WSW 5.8 mph - N/A   Clear
11:55 PM 15.8 °F - -7.6 °F 35% 29.95 in 10.0 mi Calm Calm - N/A   Clear